Cagliari, Italy

5:26 AM CEST on May 28, 2017 (GMT +0200)
Elmas Mil

Weather History for LIEE - October, 2013

Change the Weather History Date:

Wednesday, October 16, 2013

  Actual Average Record
Temperature  
Mean Temperature 74 °F -  
Max Temperature 78 °F 69 °F 80 °F (2001)
Min Temperature 69 °F 53 °F 50 °F (2011)
Cooling Degree Days 8    
Growing Degree Days 24 (Base 50)    
Moisture  
Dew Point 61 °F    
Average Humidity 67    
Maximum Humidity 83    
Minimum Humidity 44    
Precipitation  
Precipitation 0.00 in 0.07 in - ()
Sea Level Pressure  
Sea Level Pressure 29.94 in    
Wind  
Wind Speed 14 mph ()    
Max Wind Speed 31 mph    
Max Gust Speed 45 mph    
Visibility 6.2 miles    
Events      
Averages and records for this station are not official NWS values.
T = Trace of Precipitation, MM = Missing Value Source: Averaged Metar Reports

Daily Weather History Graph

Daily Weather History Graph

Search for Another Location

Airport or City:

Trip Planner

Search our weather history database for the weather conditions in past years. The results will help you decide how hot, cold, wet, or windy it might be!

Date:

Astronomy

Oct. 16, 2013 Rise Set
Actual Time 7:34 AM CEST 6:43 PM CEST
Civil Twilight 7:07 AM CEST 7:10 PM CEST
Nautical Twilight 6:36 AM CEST 7:41 PM CEST
Astronomical Twilight 6:05 AM CEST 8:12 PM CEST
Moon 5:13 PM CEST (10/16) 4:45 AM CEST (10/16)
Length of Visible Light 12h 03m
Length of Day
11h 08m
Waxing Gibbous, 92% of the Moon is Illuminated
Oct 16
Waxing Gibbous
Oct 19
Full
Oct 27
Last Quarter
Nov 3
New
Nov 10
First Quarter

Hourly Weather History & Observations

Time (CEST) Temp. Dew Point Humidity Pressure Visibility Wind Dir Wind Speed Gust Speed Precip Events Conditions
12:20 AM 73.4 °F 64.4 °F 73% 29.98 in 6.2 mi West 16.1 mph - N/A   Partly Cloudy
12:50 AM 71.6 °F 64.4 °F 78% 29.98 in 6.2 mi West 12.7 mph - N/A   Partly Cloudy
1:20 AM 71.6 °F 66.2 °F 83% 29.98 in 6.2 mi WNW 10.4 mph - N/A   Partly Cloudy
1:50 AM 71.6 °F 64.4 °F 78% 29.98 in 6.2 mi WNW 8.1 mph - N/A   Partly Cloudy
2:20 AM 71.6 °F 66.2 °F 83% 29.98 in 6.2 mi WNW 8.1 mph - N/A   Partly Cloudy
2:50 AM 71.6 °F 66.2 °F 83% 29.98 in 6.2 mi WNW 9.2 mph - N/A   Partly Cloudy
3:20 AM 71.6 °F 66.2 °F 83% 29.95 in 6.2 mi WNW 9.2 mph - N/A   Partly Cloudy
3:50 AM 71.6 °F 66.2 °F 83% 29.95 in 6.2 mi WNW 10.4 mph - N/A   Partly Cloudy
4:20 AM 71.6 °F 66.2 °F 83% 29.92 in 6.2 mi WNW 16.1 mph - N/A   Partly Cloudy
4:50 AM 71.6 °F 66.2 °F 83% 29.92 in 6.2 mi WNW 15.0 mph - N/A   Partly Cloudy
5:20 AM 71.6 °F 64.4 °F 78% 29.95 in 6.2 mi WNW 12.7 mph - N/A   Partly Cloudy
5:50 AM 71.6 °F 62.6 °F 73% 29.95 in 6.2 mi WNW 11.5 mph - N/A   Partly Cloudy
6:20 AM 69.8 °F 62.6 °F 78% 29.95 in - WNW 8.1 mph - N/A   Clear
6:50 AM 69.8 °F 62.6 °F 78% 29.92 in - WNW 9.2 mph - N/A   Clear
7:20 AM 69.8 °F 62.6 °F 78% 29.95 in 6.2 mi NW 9.2 mph - N/A   Partly Cloudy
7:50 AM 69.8 °F 62.6 °F 78% 29.92 in 6.2 mi WNW 10.4 mph - N/A   Partly Cloudy
8:20 AM 69.8 °F 62.6 °F 78% 29.92 in 6.2 mi WNW 12.7 mph - N/A   Partly Cloudy
8:50 AM 69.8 °F 62.6 °F 78% 29.95 in 6.2 mi WNW 12.7 mph - N/A   Partly Cloudy
9:20 AM 69.8 °F 60.8 °F 73% 29.95 in 6.2 mi WNW 11.5 mph - N/A   Partly Cloudy
9:50 AM 71.6 °F 59.0 °F 64% 29.95 in 6.2 mi WNW 12.7 mph - N/A   Partly Cloudy
10:20 AM 71.6 °F 60.8 °F 69% 29.95 in 6.2 mi NW 9.2 mph - N/A   Partly Cloudy
10:50 AM 73.4 °F 59.0 °F 61% 29.95 in 6.2 mi NW 11.5 mph - N/A   Partly Cloudy
11:20 AM 75.2 °F 59.0 °F 57% 29.95 in 6.2 mi NW 20.7 mph 32.2 mph N/A   Partly Cloudy
11:50 AM 77.0 °F 59.0 °F 54% 29.92 in 6.2 mi NW 21.9 mph 34.5 mph N/A   Partly Cloudy
12:20 PM 78.8 °F 57.2 °F 47% 29.92 in 6.2 mi NW 23.0 mph 35.7 mph N/A   Partly Cloudy
12:50 PM 78.8 °F 55.4 °F 44% 29.92 in 6.2 mi NW 28.8 mph 41.4 mph N/A   Partly Cloudy
1:20 PM 78.8 °F 55.4 °F 44% 29.92 in 6.2 mi NW 28.8 mph 44.9 mph N/A   Partly Cloudy
1:50 PM 78.8 °F 57.2 °F 47% 29.92 in 6.2 mi NW 28.8 mph 41.4 mph N/A   Partly Cloudy
2:20 PM 78.8 °F 57.2 °F 47% 29.92 in 6.2 mi NW 31.1 mph 43.7 mph N/A   Partly Cloudy
2:50 PM 78.8 °F 57.2 °F 47% 29.92 in 6.2 mi NW 28.8 mph 42.6 mph N/A   Partly Cloudy
3:20 PM 78.8 °F 59.0 °F 51% 29.89 in 6.2 mi NW 26.5 mph - N/A   Partly Cloudy
3:50 PM 78.8 °F 57.2 °F 47% 29.89 in 6.2 mi NW 24.2 mph - N/A   Partly Cloudy
4:20 PM 78.8 °F 57.2 °F 47% 29.92 in 6.2 mi NW 25.3 mph - N/A   Partly Cloudy
4:50 PM 77.0 °F 57.2 °F 50% 29.92 in 6.2 mi NW 24.2 mph - N/A   Partly Cloudy
5:20 PM 77.0 °F 59.0 °F 54% 29.92 in 6.2 mi NW 21.9 mph 34.5 mph N/A   Partly Cloudy
5:50 PM 75.2 °F 59.0 °F 57% 29.92 in 6.2 mi NNW 20.7 mph - N/A   Partly Cloudy
6:20 PM 75.2 °F 59.0 °F 57% 29.92 in 6.2 mi NW 18.4 mph - N/A   Partly Cloudy
6:50 PM 73.4 °F 60.8 °F 65% 29.92 in 6.2 mi NNW 18.4 mph - N/A   Partly Cloudy
7:20 PM 71.6 °F 60.8 °F 69% 29.92 in 6.2 mi NNW 18.4 mph - N/A   Partly Cloudy
7:50 PM 71.6 °F 62.6 °F 73% 29.95 in 6.2 mi NNW 17.3 mph - N/A   Partly Cloudy
8:20 PM 69.8 °F 60.8 °F 73% 29.95 in 6.2 mi NNW 17.3 mph - N/A   Partly Cloudy
8:50 PM 69.8 °F 62.6 °F 78% 29.95 in - NNW 20.7 mph - N/A   Clear
9:20 PM 69.8 °F 60.8 °F 73% 29.95 in - NW 20.7 mph - N/A   Clear
9:50 PM 69.8 °F 60.8 °F 73% 29.95 in - NW 19.6 mph - N/A   Clear
10:20 PM 69.8 °F 59.0 °F 68% 29.98 in - NW 16.1 mph - N/A   Clear
10:50 PM 69.8 °F 59.0 °F 68% 29.98 in - NW 17.3 mph - N/A   Clear
11:20 PM 69.8 °F 60.8 °F 73% 29.98 in - NW 20.7 mph - N/A   Clear
11:50 PM 69.8 °F 60.8 °F 73% 29.98 in 6.2 mi NW 20.7 mph - N/A   Partly Cloudy